Regional Weather Roundup
Issued by NWS

Home | Current Version | Previous Version | Graphics & Text | Print | Product List | Glossary Off
Versions: 1 2 3 4 5 6 7 8 9 10 11 12 13 14 15 16 17 18 19 20 21 22 23 24 25 26 27 28 29 30 31 32 33 34 35 36 37 38 39 40 41 42 43 44 45 46 47 48 49 50

000
ASUS43 KTOP 230208
RWRKS

WEATHER ROUNDUP FOR KANSAS
NATIONAL WEATHER SERVICE GOODLAND KS
900 PM CDT FRI JUL 22 2016

NOTE:  "FAIR" INDICATES FEW OR NO CLOUDS BELOW 12,000 FEET WITH NO
SIGNIFICANT WEATHER AND/OR OBSTRUCTIONS TO VISIBILITY.

KSZ001>006-013>018-027>032-041>047-230300-
NORTHWEST KANSAS

CITY           SKY/WX    TMP DP  RH WIND       PRES   REMARKS
GOODLAND       CLEAR     87  54  32 S10       29.96F
HAYS           CLOUDY    91  61  35 S10       29.90S
HILL CITY      CLOUDY    86  71  60 CALM      29.90F
RUSSELL        PTCLDY    91  60  35 S8        29.89S
$$

KSZ061>065-074>080-084>089-230300-
SOUTHWEST KANSAS

CITY           SKY/WX    TMP DP  RH WIND       PRES   REMARKS
DODGE CITY     CLEAR     88  59  37 S10       29.95S
ELKHART          N/A     89  58  35 SE12        N/A
GARDEN CITY    CLEAR     86  64  47 SE9       29.95S
GREAT BEND     CLEAR     88  64  45 S8        29.90F
LIBERAL        CLOUDY    91  54  27 SE10      29.98R
PRATT          CLEAR     88  59  37 S9        29.94R
$$

KSZ066>073-081>083-090>101-230300-
SOUTHEAST KANSAS

CITY           SKY/WX    TMP DP  RH WIND       PRES   REMARKS
CHANUTE        CLEAR     86  74  67 SE6       29.95S
COFFEYVILLE    CLEAR     89  71  55 SE6       29.94S HX  95
HUTCHINSON     CLEAR     87  67  51 E7        29.91S
MEDICINE LODGE   N/A     93  58  30 S8        29.91S
NEWTON         CLEAR     89  71  55 SE9       29.94S HX  95
PARSONS        CLEAR     87  73  62 SE5       29.96S
WICHITA INTL   PTCLDY    92  69  47 SE13      29.92R HX  97
WICHITA JABRA  CLEAR     90  70  51 S13       29.93R HX  95
WICHITA MCCONL CLEAR     91  69  49 S10       29.93R HX  96
WINFIELD       CLEAR     89  68  49 SE9       29.94S
$$

KSZ007>012-019>026-033>040-048>060-102>105-230300-
NORTHEAST KANSAS

CITY           SKY/WX    TMP DP  RH WIND       PRES   REMARKS
CONCORDIA      CLOUDY    80  69  69 S8        29.88S
EMPORIA        CLOUDY    87  74  64 SE12      29.93S HX  95
LAWRENCE       CLOUDY    84  77  79 SE7       29.92S
MANHATTAN      CLOUDY    88  73  61 W3        29.88R HX  95
MARYSVILLE     CLOUDY    86  70  58 SE3       29.90R
OLATHE IND     CLEAR     87  74  64 SE12      29.95F HX  95
OLATHE EXE     CLEAR     86  76  71 SE9       29.96F HX  96
SALINA         PTCLDY    94  70  45 S14       29.87F HX 100
TOPEKA BILLARD PTCLDY    89  72  56 SE10      29.90S HX  96
TOPEKA FORBES  PTCLDY    89  73  59 S9        29.92R HX  97
$$



USA.gov is the U.S. government's official web portal to all federal, state and local government web resources and services.